Volver al catálogo

STARLINK-6342

ActivoComunicacionesVLEO
NORAD 56770·PAYLOAD·🇺🇸 United States

Lanzado May 31, 2023 desde Vandenberg Space Force Base

Loading…

Próximos Pases (próximas 24 horas)

TLE

ActualizadoSource: CelesTrak SupGP

Época: Sep 14, 2026, 21:24 UTC

1 56770C 23078D   26257.89215278  .00723940  00000+0  60259-1 0  2573
2 56770  70.0003 247.4095 0003572 263.0231 245.0628 14.98227507    15

Sigue STARLINK-6342 en tiempo real con AllMySat

Download on the App Store